Main page
METAR-TAF:

METAR-TAF

Airports :

Shahrekord, Iran

Shahrekord Airport

latitude: 32-20N, longitude: 050-51E, elevation: 2078 m

Current weather observation

The report was made 21 minutes ago, at 17:00 UTC
Wind 6 kt from the West
Temperature 22°C
Humidity 14%
Pressure 1018 hPa
Visibility 10 km or more
no clouds below 1500 m and no cumulonimbus

METAR: OIFS 231700Z 27006KT CAVOK 22/M07 Q1018

Time: 21:51 (17:21 UTC)


TAF: missing

Weather observations and forecasts of more than 4000 airports (METAR and TAF reports).

The available stations are represented by yellow and red dots on the map.

Hover mouse over dot to see the name of the station.

Then click to see weather observations and forecasts.

To change the map : click on the green buttons with a black cross to zoom in, on the green button with a dash to zoom out, or on the green arrows for adjacent maps.


METAR-TAF: